Ciampino, Italy

1:48 AM CET on December 05, 2016 (GMT +0100)
Ciampino

Weather History for LIRA - April, 2014

Change the Weather History Date:

Saturday, April 26, 2014

  Actual Average Record
Temperature  
Mean Temperature 62 °F -  
Max Temperature 69 °F 66 °F 73 °F (1998)
Min Temperature 55 °F 49 °F 42 °F (1997)
Degree Days  
Heating Degree Days 3    
Growing Degree Days 12 (Base 50)    
Moisture  
Dew Point 52 °F    
Average Humidity 74    
Maximum Humidity 88    
Minimum Humidity 45    
Precipitation  
Precipitation 0.51 in - - ()
Sea Level Pressure  
Sea Level Pressure 29.78 in    
Wind  
Wind Speed 3 mph ()    
Max Wind Speed 12 mph    
Max Gust Speed -    
Visibility 5.5 miles    
Events Fog , Rain , Thunderstorm    
Averages and records for this station are not official NWS values.
T = Trace of Precipitation, MM = Missing Value Source: Averaged Metar Reports

Daily Weather History Graph

Daily Weather History Graph

Search for Another Location

Airport or City:

Trip Planner

Search our weather history database for the weather conditions in past years. The results will help you decide how hot, cold, wet, or windy it might be!

Date:

Astronomy

Apr. 26, 2014 Rise Set
Actual Time 6:13 AM CEST 8:02 PM CEST
Civil Twilight 5:43 AM CEST 8:32 PM CEST
Nautical Twilight 5:07 AM CEST 9:08 PM CEST
Astronomical Twilight 4:28 AM CEST 9:47 PM CEST
Moon 4:30 AM CEST (4/26) 5:09 PM CEST (4/26)
Length of Visible Light 14h 48m
Length of Day
13h 49m
Waning Crescent, 10% of the Moon is Illuminated
Apr 26
Waning Crescent
Apr 29
New
May 7
First Quarter
May 14
Full
May 21
Last Quarter

Hourly Weather History & Observations

Time (CEST) Temp. Dew Point Humidity Pressure Visibility Wind Dir Wind Speed Gust Speed Precip Events Conditions
12:15 AM 57.2 °F 51.8 °F 82% 29.80 in 6.2 mi SSE 2.3 mph - N/A   Partly Cloudy
12:45 AM 57.2 °F 51.8 °F 82% 29.80 in 6.2 mi SE 3.5 mph - N/A   Scattered Clouds
1:15 AM 57.2 °F 51.8 °F 82% 29.80 in 6.2 mi ENE 2.3 mph - N/A   Scattered Clouds
1:45 AM 57.2 °F 50.0 °F 77% 29.80 in 6.2 mi ENE 3.5 mph - N/A   Scattered Clouds
2:00 AM 57 °F 51 °F 72% 29.81 in 7 mi ENE 3.5 mph - -   Scattered Clouds
2:15 AM 57.2 °F 50.0 °F 77% 29.80 in 6.2 mi Calm Calm - N/A   Scattered Clouds
2:45 AM 55.4 °F 50.0 °F 82% 29.80 in 6.2 mi Calm Calm - N/A   Scattered Clouds
3:15 AM 57.2 °F 50.0 °F 77% 29.80 in 6.2 mi Calm Calm - N/A   Scattered Clouds
3:45 AM 55.4 °F 50.0 °F 82% 29.77 in 6.2 mi Calm Calm - N/A   Scattered Clouds
4:15 AM 55.4 °F 50.0 °F 82% 29.77 in 6.2 mi Calm Calm - N/A   Scattered Clouds
4:45 AM 55.4 °F 48.2 °F 77% 29.77 in 6.2 mi Calm Calm - N/A   Scattered Clouds
5:00 AM 55 °F 49 °F 74% 29.78 in 7 mi Calm Calm - -   Scattered Clouds
5:15 AM 55.4 °F 48.2 °F 77% 29.77 in 6.2 mi Calm Calm - N/A   Scattered Clouds
5:45 AM 55.4 °F 48.2 °F 77% 29.77 in 6.2 mi South 2.3 mph - N/A   Scattered Clouds
6:15 AM 57.2 °F 51.8 °F 82% 29.77 in 6.2 mi SW 3.5 mph - N/A   Mostly Cloudy
6:45 AM 57.2 °F 51.8 °F 82% 29.77 in 6.2 mi SW 1.2 mph - N/A   Mostly Cloudy
7:15 AM 57.2 °F 51.8 °F 82% 29.80 in 6.2 mi Calm Calm - N/A   Mostly Cloudy
7:45 AM 59.0 °F 51.8 °F 77% 29.80 in 6.2 mi Calm Calm - N/A   Scattered Clouds
8:00 AM 58 °F 52 °F 75% 29.81 in 6 mi Calm Calm - -   Partly Cloudy
8:15 AM 59.0 °F 53.6 °F 82% 29.80 in 6.2 mi Calm Calm - N/A   Scattered Clouds
8:45 AM 59.0 °F 53.6 °F 82% 29.80 in 6.2 mi NNW 1.2 mph - N/A   Scattered Clouds
9:15 AM 59.0 °F 53.6 °F 82% 29.80 in 6.2 mi North 3.5 mph - N/A   Scattered Clouds
9:45 AM 60.8 °F 53.6 °F 77% 29.80 in 6.2 mi NNE 3.5 mph - N/A   Scattered Clouds
10:15 AM 60.8 °F 53.6 °F 77% 29.80 in 6.2 mi North 5.8 mph - N/A   Scattered Clouds
10:45 AM 62.6 °F 53.6 °F 72% 29.80 in 6.2 mi North 5.8 mph - N/A   Scattered Clouds
11:00 AM 63 °F 54 °F 65% 29.81 in 6 mi North 5.8 mph - -   Partly Cloudy
11:15 AM 62.6 °F 51.8 °F 68% 29.80 in 6.2 mi NNW 6.9 mph - N/A   Mostly Cloudy
11:45 AM 64.4 °F 51.8 °F 64% 29.80 in 6.2 mi NNW 5.8 mph - N/A   Mostly Cloudy
12:15 PM 64.4 °F 51.8 °F 64% 29.80 in 6.2 mi North 5.8 mph - N/A   Mostly Cloudy
12:45 PM 66.2 °F 53.6 °F 64% 29.80 in 6.2 mi NNW 6.9 mph - N/A   Mostly Cloudy
1:15 PM 66.2 °F 51.8 °F 60% 29.77 in 6.2 mi NW 5.8 mph - N/A   Scattered Clouds
1:45 PM 68.0 °F 51.8 °F 56% 29.77 in 6.2 mi NW 4.6 mph - N/A   Scattered Clouds
2:00 PM 68 °F 51 °F 45% 29.78 in 6 mi NW 4.6 mph - -   Partly Cloudy
2:15 PM 68.0 °F 51.8 °F 56% 29.77 in 6.2 mi NW 4.6 mph - N/A   Scattered Clouds
2:45 PM 68.0 °F 51.8 °F 56% 29.77 in 6.2 mi WNW 6.9 mph - N/A   Scattered Clouds
3:15 PM 69.8 °F 55.4 °F 60% 29.74 in 6.2 mi West 9.2 mph - N/A   Scattered Clouds
3:45 PM 68.0 °F 53.6 °F 60% 29.74 in 6.2 mi WSW 10.4 mph - N/A   Scattered Clouds
4:15 PM 66.2 °F 51.8 °F 60% 29.74 in 6.2 mi West 10.4 mph - N/A Thunderstorm Thunderstorm
4:45 PM 64.4 °F 51.8 °F 64% 29.74 in 6.2 mi West 11.5 mph - N/A Thunderstorm Thunderstorm
5:00 PM 65 °F 53 °F 55% 29.76 in 6 mi West 11.5 mph - -   Mostly Cloudy
5:15 PM 62.6 °F 50.0 °F 63% 29.74 in 6.2 mi WSW 4.6 mph - N/A Thunderstorm Thunderstorm
5:45 PM 62.6 °F 51.8 °F 68% 29.77 in 6.2 mi WSW 5.8 mph - N/A Thunderstorm Thunderstorm
6:15 PM 62.6 °F 53.6 °F 72% 29.77 in 5.0 mi SW 3.5 mph - N/A Rain , Thunderstorm Light Thunderstorms and Rain
6:45 PM 60.8 °F 53.6 °F 77% 29.77 in 1.2 mi West 4.6 mph - N/A Rain , Thunderstorm Light Thunderstorms and Rain
7:15 PM 60.8 °F 55.4 °F 82% 29.77 in 2.5 mi SSW 6.9 mph - N/A Rain , Thunderstorm Light Thunderstorms and Rain
7:45 PM 60.8 °F 55.4 °F 82% 29.77 in 3.1 mi SW 4.6 mph - N/A Rain Light Rain
8:00 PM 60 °F 55 °F 77% 29.78 in 3 mi SW 4.6 mph - - Rain Light Rain
8:15 PM 60.8 °F 55.4 °F 82% 29.77 in 3.1 mi Calm Calm - N/A   Scattered Clouds
8:45 PM 59.0 °F 53.6 °F 82% 29.77 in 3.7 mi Calm Calm - N/A   Scattered Clouds
9:15 PM 59.0 °F 53.6 °F 82% 29.77 in 4.3 mi Calm Calm - N/A   Scattered Clouds
9:45 PM 59.0 °F 53.6 °F 82% 29.77 in 5.0 mi East 1.2 mph - N/A   Scattered Clouds
10:15 PM 57.2 °F 51.8 °F 82% 29.77 in 5.0 mi Calm Calm - N/A   Scattered Clouds
10:45 PM 57.2 °F 51.8 °F 82% 29.77 in 5.0 mi Calm Calm - N/A   Scattered Clouds
11:00 PM 57 °F 52 °F 78% 29.79 in 5 mi Calm Calm - -   Mist
11:15 PM 57.2 °F 51.8 °F 82% 29.77 in 0.2 mi WSW 3.5 mph - N/A Fog Fog
11:45 PM 55.4 °F 51.8 °F 88% 29.77 in 0.5 mi SW 2.3 mph - N/A Fog Fog